EZY515T EGPH-EGAA

Flight info

Callsign EZY515T
Flight time 0h 32m
Altitude 18000
Route GOSAM P600 BLACA DCT BELZU
Aircraft A320/M-SDE2E3FGHIJ1RWXYZ/LB1

Departure

Time 2026-04-26 14:27
Airport Edinburgh Airport (EGPH)

Arrival

Time 2026-04-26 14:59
Airport Belfast International Airport (EGAA)
Time Latitude Longitude Altitude Speed Heading
2026-04-26 14:00 55.94657 -3.36615 117 ft 0 kts 89°
2026-04-26 14:15 55.94657 -3.36655 115 ft 4 kts 89°
2026-04-26 14:15 55.94656 -3.36700 114 ft 4 kts 75°
2026-04-26 14:15 55.94643 -3.36729 112 ft 4 kts 14°
2026-04-26 14:15 55.94621 -3.36734 113 ft 0 kts 359°
2026-04-26 14:20 55.94635 -3.36734 113 ft 5 kts 359°
2026-04-26 14:20 55.94679 -3.36735 115 ft 6 kts 359°
2026-04-26 14:20 55.94717 -3.36736 116 ft 5 kts
2026-04-26 14:21 55.94757 -3.36752 114 ft 8 kts 329°
2026-04-26 14:21 55.94809 -3.36777 116 ft 8 kts 357°
2026-04-26 14:21 55.94866 -3.36781 116 ft 8 kts 351°
2026-04-26 14:21 55.94909 -3.36819 115 ft 6 kts 330°
2026-04-26 14:22 55.94925 -3.36887 114 ft 9 kts 264°
2026-04-26 14:22 55.94887 -3.37010 113 ft 11 kts 238°
2026-04-26 14:22 55.94849 -3.37123 113 ft 10 kts 238°
2026-04-26 14:22 55.94799 -3.37272 113 ft 15 kts 239°
2026-04-26 14:23 55.94747 -3.37425 111 ft 14 kts 239°
2026-04-26 14:23 55.94700 -3.37564 113 ft 14 kts 239°
2026-04-26 14:23 55.94641 -3.37737 116 ft 18 kts 239°
2026-04-26 14:23 55.94578 -3.37922 114 ft 17 kts 239°
2026-04-26 14:24 55.94522 -3.38088 114 ft 15 kts 239°
2026-04-26 14:24 55.94471 -3.38238 113 ft 13 kts 239°
2026-04-26 14:24 55.94422 -3.38383 115 ft 13 kts 239°
2026-04-26 14:24 55.94368 -3.38539 114 ft 18 kts 239°
2026-04-26 14:25 55.94308 -3.38716 114 ft 15 kts 239°
2026-04-26 14:25 55.94282 -3.38840 116 ft 8 kts 285°
2026-04-26 14:25 55.94328 -3.38911 113 ft 11 kts 330°
2026-04-26 14:25 55.94393 -3.38972 114 ft 9 kts 350°
2026-04-26 14:26 55.94432 -3.38920 114 ft 7 kts 55°
2026-04-26 14:26 55.94444 -3.38887 114 ft 0 kts 58°
2026-04-26 14:26 55.94509 -3.38699 113 ft 52 kts 58°
2026-04-26 14:26 55.94813 -3.37801 113 ft 116 kts 59°
2026-04-26 14:27 55.95321 -3.36295 162 ft 161 kts 58°
2026-04-26 14:27 55.95926 -3.34555 751 ft 166 kts 54°
2026-04-26 14:27 55.96762 -3.33088 1346 ft 175 kts 39°
2026-04-26 14:27 55.97737 -3.31587 1708 ft 197 kts 41°
2026-04-26 14:28 55.98816 -3.29853 2012 ft 220 kts 41°
2026-04-26 14:28 56.00118 -3.28247 2381 ft 243 kts 17°
2026-04-26 14:28 56.01859 -3.28236 2890 ft 257 kts 336°
2026-04-26 14:28 56.03277 -3.30125 3665 ft 257 kts 306°
2026-04-26 14:29 56.04113 -3.32867 4576 ft 256 kts 284°
2026-04-26 14:29 56.04262 -3.36026 5503 ft 258 kts 260°
2026-04-26 14:29 56.03643 -3.39024 6400 ft 261 kts 239°
2026-04-26 14:29 56.02681 -3.41788 7296 ft 263 kts 237°
2026-04-26 14:30 56.01701 -3.44552 8241 ft 263 kts 237°
2026-04-26 14:30 56.00722 -3.47312 9166 ft 264 kts 237°
2026-04-26 14:30 55.99735 -3.50096 10074 ft 265 kts 237°
2026-04-26 14:30 55.98739 -3.52917 10694 ft 277 kts 237°
2026-04-26 14:31 55.97672 -3.55940 10966 ft 299 kts 237°
2026-04-26 14:31 55.96546 -3.59139 11536 ft 308 kts 238°
2026-04-26 14:31 55.95396 -3.62409 12247 ft 313 kts 238°
2026-04-26 14:31 55.94225 -3.65730 12974 ft 318 kts 238°
2026-04-26 14:32 55.93039 -3.69091 13703 ft 322 kts 238°
2026-04-26 14:32 55.91835 -3.72499 14364 ft 327 kts 238°
2026-04-26 14:32 55.90619 -3.75939 14991 ft 330 kts 238°
2026-04-26 14:32 55.89389 -3.79414 15630 ft 333 kts 238°
2026-04-26 14:33 55.88149 -3.82909 16295 ft 335 kts 238°
2026-04-26 14:33 55.86910 -3.86394 16954 ft 338 kts 238°
2026-04-26 14:33 55.85630 -3.89980 17613 ft 341 kts 238°
2026-04-26 14:33 55.84368 -3.93514 18130 ft 344 kts 238°
2026-04-26 14:34 55.83089 -3.97092 18245 ft 340 kts 238°
2026-04-26 14:34 55.81843 -4.00566 18265 ft 328 kts 238°
2026-04-26 14:34 55.80622 -4.03965 18267 ft 325 kts 238°
2026-04-26 14:34 55.79402 -4.07355 18270 ft 325 kts 238°
2026-04-26 14:35 55.78187 -4.10726 18271 ft 324 kts 238°
2026-04-26 14:35 55.76971 -4.14101 18273 ft 324 kts 238°
2026-04-26 14:35 55.75754 -4.17473 18269 ft 324 kts 238°
2026-04-26 14:35 55.74536 -4.20845 18272 ft 324 kts 238°
2026-04-26 14:36 55.73318 -4.24216 18264 ft 324 kts 238°
2026-04-26 14:36 55.72061 -4.27540 18274 ft 325 kts 233°
2026-04-26 14:36 55.70484 -4.30410 18263 ft 327 kts 221°
2026-04-26 14:36 55.68625 -4.32776 18260 ft 329 kts 217°
2026-04-26 14:37 55.66746 -4.35091 18257 ft 329 kts 217°
2026-04-26 14:37 55.64867 -4.37412 18260 ft 330 kts 217°
2026-04-26 14:37 55.62985 -4.39739 18265 ft 330 kts 217°
2026-04-26 14:37 55.61105 -4.42059 18261 ft 330 kts 217°
2026-04-26 14:38 55.59215 -4.44386 18256 ft 330 kts 217°
2026-04-26 14:38 55.57331 -4.46700 18268 ft 330 kts 218°
2026-04-26 14:38 55.55468 -4.48985 18266 ft 330 kts 218°
2026-04-26 14:38 55.53583 -4.51300 18265 ft 330 kts 218°
2026-04-26 14:39 55.51693 -4.53616 18267 ft 331 kts 218°
2026-04-26 14:39 55.49804 -4.55928 18268 ft 331 kts 217°
2026-04-26 14:39 55.47912 -4.58239 18267 ft 331 kts 217°
2026-04-26 14:39 55.46022 -4.60546 18267 ft 331 kts 217°
2026-04-26 14:40 55.44128 -4.62857 18270 ft 331 kts 217°
2026-04-26 14:40 55.42234 -4.65161 18258 ft 331 kts 217°
2026-04-26 14:40 55.40342 -4.67460 18257 ft 331 kts 217°
2026-04-26 14:40 55.38442 -4.69771 18262 ft 332 kts 217°
2026-04-26 14:41 55.36544 -4.72082 18270 ft 332 kts 217°
2026-04-26 14:41 55.34641 -4.74392 18265 ft 333 kts 217°
2026-04-26 14:41 55.32730 -4.76702 18267 ft 333 kts 217°
2026-04-26 14:41 55.30780 -4.78886 18270 ft 335 kts 210°
2026-04-26 14:42 55.28697 -4.80724 18272 ft 335 kts 210°
2026-04-26 14:42 55.26611 -4.82557 18283 ft 335 kts 210°
2026-04-26 14:42 55.24524 -4.84393 18284 ft 335 kts 210°
2026-04-26 14:42 55.22462 -4.86205 18291 ft 336 kts 210°
2026-04-26 14:43 55.20375 -4.88035 18289 ft 336 kts 210°
2026-04-26 14:43 55.18288 -4.89864 18290 ft 336 kts 210°
2026-04-26 14:43 55.16201 -4.91690 18277 ft 336 kts 209°
2026-04-26 14:43 55.14109 -4.93520 18275 ft 336 kts 209°
2026-04-26 14:44 55.12021 -4.95345 18261 ft 336 kts 209°
2026-04-26 14:44 55.09925 -4.97174 18276 ft 337 kts 209°
2026-04-26 14:44 55.07833 -4.99001 18277 ft 337 kts 209°
2026-04-26 14:44 55.05734 -5.00831 18280 ft 337 kts 209°
2026-04-26 14:45 55.03632 -5.02656 18280 ft 337 kts 209°
2026-04-26 14:45 55.02236 -5.03865 18278 ft 337 kts 209°
2026-04-26 14:45 54.99424 -5.06298 18278 ft 337 kts 209°
2026-04-26 14:45 54.97325 -5.08111 18281 ft 337 kts 209°
2026-04-26 14:46 54.95217 -5.09931 18288 ft 338 kts 209°
2026-04-26 14:46 54.93119 -5.11743 18287 ft 338 kts 209°
2026-04-26 14:46 54.91025 -5.13596 18241 ft 335 kts 213°
2026-04-26 14:46 54.89210 -5.16014 17945 ft 324 kts 227°
2026-04-26 14:47 54.87856 -5.19058 17687 ft 315 kts 242°
2026-04-26 14:47 54.86985 -5.22492 17435 ft 308 kts 252°
2026-04-26 14:47 54.86288 -5.25980 17086 ft 305 kts 251°
2026-04-26 14:47 54.85587 -5.29450 16713 ft 304 kts 251°
2026-04-26 14:48 54.84884 -5.32904 16346 ft 303 kts 251°
2026-04-26 14:48 54.84182 -5.36355 15967 ft 302 kts 251°
2026-04-26 14:48 54.83483 -5.39789 15596 ft 302 kts 251°
2026-04-26 14:48 54.82781 -5.43220 15234 ft 302 kts 250°
2026-04-26 14:49 54.82087 -5.46601 14856 ft 301 kts 251°
2026-04-26 14:49 54.81383 -5.50020 14490 ft 301 kts 250°
2026-04-26 14:49 54.80670 -5.53476 14096 ft 301 kts 250°
2026-04-26 14:49 54.79976 -5.56848 13711 ft 300 kts 251°
2026-04-26 14:50 54.79312 -5.60217 13251 ft 292 kts 251°
2026-04-26 14:50 54.78691 -5.63549 12621 ft 289 kts 252°
2026-04-26 14:50 54.78090 -5.66838 12005 ft 286 kts 252°
2026-04-26 14:50 54.77495 -5.70102 11383 ft 283 kts 252°
2026-04-26 14:51 54.76902 -5.73330 10766 ft 280 kts 252°
2026-04-26 14:51 54.76312 -5.76526 10160 ft 277 kts 251°
2026-04-26 14:51 54.75720 -5.79712 9382 ft 278 kts 251°
2026-04-26 14:51 54.75126 -5.82901 8606 ft 278 kts 251°
2026-04-26 14:52 54.74528 -5.86091 7857 ft 278 kts 251°
2026-04-26 14:52 54.73931 -5.89269 7170 ft 275 kts 251°
2026-04-26 14:52 54.73346 -5.92431 6283 ft 279 kts 252°
2026-04-26 14:52 54.72694 -5.95619 5376 ft 282 kts 248°
2026-04-26 14:53 54.71885 -5.98725 4465 ft 284 kts 245°
2026-04-26 14:53 54.71042 -6.01817 3572 ft 286 kts 245°
2026-04-26 14:53 54.70222 -6.04872 3095 ft 271 kts 245°
2026-04-26 14:53 54.69450 -6.07767 2591 ft 260 kts 245°
2026-04-26 14:54 54.68581 -6.10354 2108 ft 239 kts 226°
2026-04-26 14:54 54.67245 -6.11692 1976 ft 218 kts 190°
2026-04-26 14:54 54.65749 -6.11452 1984 ft 221 kts 156°
2026-04-26 14:54 54.64582 -6.09785 1984 ft 222 kts 121°
2026-04-26 14:55 54.64157 -6.07251 1982 ft 222 kts 86°
2026-04-26 14:55 54.64557 -6.04723 1979 ft 214 kts 58°
2026-04-26 14:55 54.65534 -6.02907 1933 ft 202 kts 31°
2026-04-26 14:55 54.66807 -6.02087 1856 ft 196 kts
2026-04-26 14:56 54.68096 -6.02331 1811 ft 181 kts 336°
2026-04-26 14:56 54.69082 -6.03567 1696 ft 169 kts 306°
2026-04-26 14:56 54.69573 -6.05322 1598 ft 159 kts 280°
2026-04-26 14:56 54.69564 -6.07136 1511 ft 150 kts 256°
2026-04-26 14:57 54.69181 -6.08775 1449 ft 146 kts 245°
2026-04-26 14:57 54.68762 -6.10340 1376 ft 142 kts 246°
2026-04-26 14:57 54.68351 -6.11879 1235 ft 141 kts 246°
2026-04-26 14:57 54.67941 -6.13421 1071 ft 141 kts 247°
2026-04-26 14:58 54.67524 -6.14962 866 ft 142 kts 247°
2026-04-26 14:58 54.67107 -6.16519 681 ft 143 kts 246°
2026-04-26 14:58 54.66689 -6.18063 522 ft 142 kts 247°
2026-04-26 14:58 54.66279 -6.19617 326 ft 141 kts 247°
2026-04-26 14:59 54.65887 -6.21075 274 ft 115 kts 245°
2026-04-26 14:59 54.65674 -6.21863 274 ft 43 kts 245°
2026-04-26 14:59 54.65556 -6.22300 273 ft 35 kts 244°
2026-04-26 14:59 54.65493 -6.22533 272 ft 26 kts 245°
2026-04-26 15:00 54.65535 -6.22716 272 ft 13 kts 338°
2026-04-26 15:00 54.65626 -6.22769 272 ft 15 kts 342°
2026-04-26 15:00 54.65707 -6.22791 274 ft 11 kts 15°
2026-04-26 15:00 54.65743 -6.22691 272 ft 10 kts 84°
2026-04-26 15:01 54.65747 -6.22581 272 ft 9 kts 86°
2026-04-26 15:01 54.65754 -6.22486 272 ft 8 kts 83°
2026-04-26 15:01 54.65763 -6.22349 272 ft 14 kts 83°
2026-04-26 15:01 54.65776 -6.22186 272 ft 13 kts 77°
2026-04-26 15:02 54.65811 -6.22032 275 ft 14 kts 66°
2026-04-26 15:02 54.65854 -6.21870 276 ft 16 kts 65°
2026-04-26 15:02 54.65904 -6.21686 273 ft 18 kts 65°
2026-04-26 15:02 54.65959 -6.21482 272 ft 20 kts 65°
2026-04-26 15:03 54.66018 -6.21266 274 ft 14 kts 64°
2026-04-26 15:03 54.66064 -6.21216 272 ft 8 kts 347°
2026-04-26 15:03 54.66113 -6.21251 275 ft 7 kts 336°
2026-04-26 15:03 54.66157 -6.21286 272 ft 6 kts 334°
2026-04-26 15:04 54.66192 -6.21318 274 ft 4 kts 320°
2026-04-26 15:04 54.66193 -6.21359 272 ft 3 kts 253°
2026-04-26 15:04 54.66187 -6.21387 272 ft 2 kts 247°
2026-04-26 15:04 54.66182 -6.21405 272 ft 1 kts 245°
2026-04-26 15:05 54.66180 -6.21414 272 ft 0 kts 245°